カタログに戻る

SL-3 R/B

運用中PO
NORAD 7493·ROCKET BODY·🇷🇺 Russia

打ち上げ Oct 28, 1974 から Plesetsk Cosmodrome

Loading…

次のパス (今後24時間)

TLE

最新Source: Space-Track

元期: Sep 14, 2026, 07:07 UTC

1 07493U 74083B   26257.29707755  .00000203  00000-0  10943-3 0  9994
2 07493  81.1572  96.6894 0079963 309.6404  49.7727 14.08041363663462

AllMySatでSL-3 R/Bをリアルタイム追跡

Download on the App Store